CW6871 Weather Reports


time (UTC)temp
C
wind
direction
speed
KPH
gust
KPH
rain 1hr
cm
rain 24hr
cm
rain mn
cm
humidity
%
barometer
mb
20260503212135 26 31 0.0 0.0 0.00 0.00 0.00 39 1011.2
20260503211123 26 35 0.0 0.0 0.00 0.00 0.00 40 1011.3
20260503210118 26 268 0.0 0.0 0.00 0.00 0.00 40 1011.4
20260503205151 25 50 0.0 0.0 0.00 0.00 0.00 40 1011.4
20260503204123 25 11 0.0 0.0 0.00 0.00 0.00 40 1011.7
20260503202115 24 93 0.0 0.0 0.00 0.00 0.00 45 1011.8
20260503201124 24 360 0.0 0.0 0.00 0.00 0.00 44 1012.1
20260503200142 23 40 0.0 0.0 0.00 0.00 0.00 47 1012.2
20260503195150 23 17 0.0 0.0 0.00 0.00 0.00 46 1012.5
20260503194138 23 17 0.0 0.0 0.00 0.00 0.00 46 1012.5
20260503193146 23 23 0.0 0.0 0.00 0.00 0.00 51 1012.6
20260503192153 22 11 0.0 0.0 0.00 0.00 0.00 50 1012.8
20260503191117 22 55 0.0 0.0 0.00 0.00 0.00 52 1012.8
20260503185145 22 20 0.0 0.0 0.00 0.00 0.00 50 1013.1
20260503184146 22 341 0.0 0.0 0.00 0.00 0.00 53 1013.1
20260503183156 22 290 0.0 0.0 0.00 0.00 0.00 50 1013.3
20260503182143 21 12 0.0 0.0 0.00 0.00 0.00 53 1013.3
20260503181111 21 339 0.0 0.0 0.00 0.00 0.00 53 1013.4
20260503180126 21 343 0.0 0.0 0.00 0.00 0.00 51 1013.3
20260503175142 21 344 0.0 0.0 0.00 0.00 0.00 55 1013.4
20260503174153 21 3 0.0 0.0 0.00 0.00 0.00 56 1013.4
20260503173137 21 6 0.0 0.0 0.00 0.00 0.00 55 1013.5
20260503172133 20 94 0.0 0.0 0.00 0.00 0.00 56 1013.6
20260503171150 20 16 0.0 0.0 0.00 0.00 0.00 59 1013.7
20260503170133 20 50 0.0 0.0 0.00 0.00 0.00 61 1013.8
20260503150136 15 92 0.0 0.0 0.00 0.00 0.00 79 1014.2
20260503140138 12 344 0.0 0.0 0.00 0.00 0.00 86 1014.0
20260503131110 10 344 0.0 0.0 0.00 0.00 0.00 89 1013.8
20260503130149 10 344 0.0 0.0 0.00 0.00 0.00 88 1013.7
20260503120150 11 346 0.0 0.0 0.00 0.00 0.00 85 1014.0
20260503110131 11 347 0.0 0.0 0.00 0.00 0.00 82 1014.1
20260503090113 12 347 0.0 0.0 0.00 0.00 0.00 75 1014.5
20260503080128 13 347 0.0 0.0 0.00 0.00 0.00 72 1014.3
20260503072123 13 347 0.0 0.0 0.00 0.00 0.00 70 1014.2
20260503071120 13 347 0.0 0.0 0.00 0.00 0.00 68 1014.0
20260503070150 14 347 0.0 0.0 0.00 0.00 0.00 68 1014.0
20260503060137 15 346 0.0 0.0 0.00 0.00 0.00 64 1013.9
20260503053142 15 347 0.0 0.0 0.00 0.00 0.00 63 1014.0
20260503052134 15 346 0.0 0.0 0.00 0.00 0.00 63 1013.9
20260503051143 15 346 0.0 0.0 0.00 0.00 0.00 62 1013.9
20260503045122 16 347 0.0 0.0 0.00 0.00 0.00 60 1013.9
20260503043123 17 347 0.0 0.0 0.00 0.00 0.00 57 1013.7
20260503042150 17 347 0.0 0.0 0.00 0.00 0.00 56 1013.6
20260503041140 17 347 0.0 0.0 0.00 0.00 0.00 55 1013.4
20260503040138 18 346 0.0 0.0 0.00 0.00 0.00 53 1013.3
20260503034122 18 347 0.0 0.0 0.00 0.00 0.00 51 1013.1
20260503033146 18 356 0.0 0.0 0.00 0.00 0.00 51 1013.0
20260503032124 19 352 0.0 0.0 0.00 0.00 0.00 51 1012.8
20260503030134 20 301 0.0 0.0 0.00 0.00 0.00 50 1012.7
20260503025118 20 348 0.0 0.0 0.00 0.00 0.00 50 1012.6
20260503024137 20 335 0.0 0.0 0.00 0.00 0.00 50 1012.6
20260503023115 20 16 0.0 0.0 0.00 0.00 0.00 50 1012.4
20260503022109 20 347 0.0 0.0 0.00 0.00 0.00 50 1012.6
20260503021110 21 15 0.0 0.0 0.00 0.00 0.00 52 1012.6
20260503020111 21 6 0.0 0.0 0.00 0.00 0.00 55 1012.7
20260503015113 21 347 0.0 0.0 0.00 0.00 0.00 55 1012.7
20260503014144 21 342 0.0 0.0 0.00 0.00 0.00 55 1012.6
20260503013144 21 49 0.0 0.0 0.00 0.00 0.00 54 1012.5
20260503012121 21 357 0.0 0.0 0.00 0.00 0.00 54 1012.7
20260503011128 21 341 0.0 0.0 0.00 0.00 0.00 54 1012.7
20260503010140 21 49 0.0 0.0 0.00 0.00 0.00 54 1012.7
20260503005126 22 93 0.0 0.0 0.00 0.00 0.00 54 1012.8
20260503004134 22 308 0.0 0.0 0.00 0.00 0.00 55 1012.9
20260503003123 22 131 0.0 0.0 0.00 0.00 0.00 56 1012.8
20260503002143 22 318 0.0 0.0 0.00 0.00 0.00 55 1012.8
20260503001142 22 135 0.0 0.0 0.00 0.00 0.00 56 1012.8
20260503000110 22 347 0.0 0.0 0.00 0.00 0.00 56 1012.9
20260502235107 22 344 0.0 0.0 0.00 0.00 0.00 56 1013.0
20260502234108 22 26 0.0 0.0 0.00 0.00 0.00 57 1013.1
20260502233108 22 13 0.0 0.0 0.00 0.00 0.00 57 1013.2
20260502232139 22 20 0.0 0.0 0.00 0.00 0.00 55 1013.4
20260502231139 22 305 0.0 0.0 0.00 0.00 0.00 55 1013.6
20260502230133 22 190 0.0 0.0 0.00 0.00 0.00 56 1013.8
20260502225139 22 50 0.0 0.0 0.00 0.00 0.00 53 1013.8
20260502223126 22 4 0.0 0.0 0.00 0.00 0.00 52 1014.0
20260502221112 22 26 0.0 0.0 0.00 0.00 0.00 52 1014.2
20260502220116 22 32 0.0 0.0 0.00 0.00 0.00 52 1014.5
20260502215111 22 35 0.0 0.0 0.00 0.00 0.00 53 1014.6
20260502214112 21 6 0.0 0.0 0.00 0.00 0.00 54 1014.6
20260502213148 22 27 0.0 0.0 0.00 0.00 0.00 57 1014.6